Location: Albuquerque Trailhead
(34.7934°N, 106.3736°W)
Time: 04:29:17
(UTC+00:00)

Daily predictions for brighter satellites

Satellite Brightness Start Highest point End
(mag) Time Altitude Azimuth Time Altitude Azimuth Time Altitude Azimuth
FALCON 9 DEB 4.4 02:48:58 10° WSW 02:52:18 46° NW 02:55:37 10° NE
Lacrosse 5 rocket 1.3 02:49:38 10° SSW 02:53:18 46° SE 02:56:51 10° NE
Cosmos 1140 Rocket 3.6 02:48:05 10° NNW 02:53:21 88° WSW 02:58:35 10° SSE
Lacrosse 5 2.7 02:48:44 10° NNW 02:53:28 38° NE 02:58:11 10° ESE
Okean 2 Rocket 3.2 02:49:38 10° N 02:54:09 88° W 02:58:41 10° S
Cosmos 2263 Rocket 2.4 02:48:36 10° NNW 02:54:14 61° ENE 02:59:51 10° SSE
ATLAS 2A CENTAUR R/B 4.5 02:29:33 10° SW 02:55:46 35° S 03:03:09 10° ESE
PEGASUS R/B 4.5 02:52:54 10° SSE 02:55:52 77° WSW 03:00:58 10° NNW
Cosmos 1975 Rocket 4.5 02:59:20 10° SE 03:02:27 20° E 03:05:37 10° NE
SL-24 DEB 4.3 02:59:30 10° SSE 03:04:10 66° E 03:08:54 10° N
Cosmos 2151 Rocket 3.6 03:00:06 10° N 03:04:30 88° W 03:08:53 10° S
Meteor 1-22 Rocket 4.3 03:00:05 10° N 03:05:55 84° E 03:11:28 10° S
Delta 128 4.5 03:01:59 10° WSW 03:06:00 32° S 03:09:43 12° SE
Cosmos 1674 Rocket 3.9 03:04:06 10° SSW 03:08:29 70° W 03:12:51 10° N
Resurs 01 Rocket 2.7 03:06:34 11° SE 03:10:11 29° ENE 03:13:59 10° NNE
Okean 2 3.3 03:06:28 10° S 03:10:33 87° E 03:14:38 10° N
Cosmos 1605 Rocket 4.2 03:05:12 10° N 03:11:30 58° E 03:17:41 10° SSE
Cosmos 1400 Rocket 4.0 03:12:52 10° NNW 03:16:30 40° W 03:20:08 10° SSW
Cosmos 2285 Rocket 4.5 03:12:06 10° SSW 03:18:29 69° WNW 03:24:56 10° NNE
Cosmos 2333 Rocket 3.4 03:16:11 11° SSE 03:20:21 22° E 03:24:40 10° NE
Cosmos 1674 3.8 03:19:14 15° SE 03:21:23 25° E 03:24:27 10° NE
Cosmos 1953 4.2 03:19:25 10° NE 03:21:57 16° ENE 03:23:31 13° ESE
Cosmos 2219 Rocket 3.6 03:19:18 14° SE 03:22:04 19° E 03:25:53 10° ENE
BREEZE-M DEB (TANK) 1.0 03:21:56 10° SW 03:24:25 88° NW 03:26:58 10° NE
Cosmos 1726 2.0 03:23:00 10° N 03:26:39 74° E 03:29:46 13° SSE
ASTRO E2 3.1 03:23:49 10° WSW 03:27:33 40° S 03:30:13 17° ESE
FALCON 9 DEB 2.7 03:27:12 10° SW 03:30:17 70° SE 03:33:24 10° NE
Cosmos 1452 Rocket 3.7 03:27:22 10° SSW 03:32:37 75° WNW 03:37:55 10° NNE
OBJECT-B 3.3 03:38:50 10° SW 03:41:12 19° W 03:43:35 10° NW
Cosmos 1470 3.3 03:40:33 10° NNW 03:44:27 58° W 03:47:58 12° S
Cosmos 2360 Rocket 2.2 03:39:54 10° SSW 03:45:33 90° WNW 03:51:14 10° NNE
Cosmos 1340 4.2 03:46:01 18° E 03:46:01 18° E 03:48:37 10° NE
FALCON 9 DEB 4.1 03:44:10 10° WSW 03:47:08 44° NW 03:50:07 10° NNE
ARIANE 5 R/B 4.2 03:45:36 18° E 03:47:11 22° ENE 03:50:35 10° NNE
Cosmos 1850 Rocket 4.3 03:42:27 10° N 03:47:35 50° ENE 03:50:28 24° SE
SL-16 R/B 3.9 03:43:42 10° SW 03:48:50 35° WNW 03:54:02 10° N
Cosmos 2322 Rocket 3.3 03:43:47 10° SW 03:49:13 46° WNW 03:54:43 10° N
Cosmos 1331 Rocket 3.9 03:46:08 10° S 03:51:17 69° ESE 03:56:32 10° NNE
FALCON 9 DEB 3.7 03:51:03 10° WSW 03:54:05 52° NW 03:57:08 10° NE
Cosmos 1455 Rocket 3.6 03:50:10 10° N 03:54:26 43° E 03:56:07 30° SE
Okean 1 Rocket 3.9 03:50:21 10° NNW 03:54:35 49° W 03:58:35 11° SSW
SPOT 1/Viking Rocket 3.8 03:54:26 26° SE 03:57:08 53° ENE 04:02:07 10° N
FALCON 9 DEB 4.5 03:54:33 10° WSW 03:57:26 36° NW 04:00:21 10° NNE
ATLAS 3B R/B 2.5 03:52:24 10° SSW 03:58:50 68° ESE 04:05:26 10° NE
IGS 5A 3.6 03:58:31 23° S 04:01:03 72° W 04:05:12 10° NNW
Cosmos 2123 Rocket 4.4 04:03:19 27° SE 04:06:15 43° E 04:12:09 10° NNE
Uosat 12 SS-18 rocket 4.5 04:06:18 37° SE 04:06:46 38° ESE 04:10:59 10° NE
Cosmos 1908 3.4 04:05:11 10° N 04:08:57 52° E 04:09:39 45° ESE
Meteor 1-16 Rocket 4.1 04:04:56 10° N 04:10:19 68° E 04:12:43 33° SSE
Cosmos 1461 3.2 04:06:55 10° NNW 04:10:56 48° ENE 04:11:53 39° E
Cosmos 1626 2.0 04:10:27 50° SSE 04:11:11 64° E 04:14:51 10° NNE
Cosmos 2322 3.6 04:06:40 14° S 04:11:28 66° ESE 04:17:04 10° NNE
Cosmos 1302 Rocket 4.2 04:09:49 30° SSE 04:12:05 51° ESE 04:17:10 10° NNE
COSMOS 2428 3.1 04:10:08 30° SSE 04:12:22 44° ESE 04:17:47 10° NE
Aureole 1 Rocket 4.4 04:06:42 10° N 04:13:08 61° ENE 04:17:14 29° SE
Terra 3.3 04:12:29 21° E 04:13:27 22° ENE 04:17:05 10° NNE
ATLAS CENTAUR R/B 3.2 04:12:07 10° N 04:15:37 22° NE 04:16:58 20° ENE
Cosmos 1025 Rocket 2.9 04:15:21 36° S 04:17:06 79° E 04:21:29 10° N
SPOT 5 3.7 04:16:00 31° ESE 04:17:24 37° ENE 04:21:56 10° N
Cosmos 1536 Rocket 4.1 04:17:04 37° ESE 04:17:26 38° E 04:21:34 10° NNE
IUS-18 SRM-1 3.5 04:08:30 10° WSW 04:19:45 41° S 04:20:37 37° SSE
BREEZE M DEB (TANK) 4.1 04:17:19 17° SSW 04:20:30 56° SE 04:33:51 10° NE
Cosmos 1741 Rocket 4.0 04:16:33 10° NNW 04:21:50 79° WSW 04:24:06 35° S
SL-4 R/B 2.0 04:19:28 10° SSW 04:23:59 56° ESE 04:27:41 10° NE
Cosmos 1844 Rocket 2.7 04:18:05 10° NNW 04:23:46 70° ENE 04:25:49 40° SE
Cosmos 2100 Rocket 4.0 04:18:32 10° N 04:24:55 87° E 04:28:07 31° S
SPOT 3 Rocket 4.2 04:22:38 23° SSW 04:25:43 51° W 04:30:46 10° NNW
CARTOSAT-1 3.5 04:29:12 56° SE 04:29:57 71° ENE 04:34:16 10° N
USA 215 3.6 04:26:18 10° ENE 04:32:17 38° SE 04:32:55 37° SE
Lacrosse 5 rocket 4.3 04:30:13 10° WNW 04:32:34 16° NW 04:34:51 10° N
Lacrosse 5 3.2 04:31:57 10° WNW 04:36:17 29° WSW 04:37:47 24° SSW
USA 245 4.2 04:35:58 39° SSW 04:37:40 66° W 04:43:14 10° NNW
Cosmos 2173 Rocket 4.1 04:32:36 10° N 04:38:59 78° W 04:42:02 33° S
Cosmos 2016 Rocket 3.9 04:36:39 10° N 04:42:46 73° E 04:44:37 46° SSE
Cosmos 405 4.0 04:40:04 10° N 04:42:28 36° NE 04:42:28 36° NE
Resurs 01 Rocket 3.7 04:44:07 13° SW 04:46:38 20° W 04:49:56 10° NW
SL-14 R/B 3.5 04:47:34 61° WSW 04:47:58 67° W 04:52:00 10° N
Cosmos 968 Rocket 4.3 04:48:24 10° N 04:53:05 35° ENE 04:53:28 35° ENE
H-2A R/B 3.8 04:52:04 10° NNE 04:55:24 53° NE 04:55:24 53° NE
Cosmos 1725 Rocket 3.9 04:50:29 10° N 04:56:41 81° E 04:58:15 53° SSE
Cosmos 1992 Rocket 4.2 04:57:08 52° E 04:57:08 52° E 05:01:55 10° NNE
Meteor 2-5 Rocket 3.6 04:56:51 51° SSW 04:58:19 87° W 05:03:55 10° N
Cosmos 1953 3.9 04:54:49 10° NNW 04:58:20 29° W 04:59:13 26° WSW
Cosmos 2333 Rocket 3.3 04:58:48 10° SW 05:04:15 43° WNW 05:09:42 10° N
DNEPR-1 R/B 3.9 05:00:43 10° NNW 05:04:43 56° NE 05:04:43 56° NE
Cosmos 2219 Rocket 3.0 05:00:53 14° SW 05:05:32 50° WNW 05:11:03 10° N
ATLAS CENTAUR R/B 3.9 05:08:15 27° ENE 05:08:15 27° ENE 05:12:55 10° NE
SL-24 R/B 4.2 05:05:50 10° N 05:10:39 85° E 05:10:41 85° ESE
Cosmos 1300 3.7 05:14:13 10° NNW 05:17:01 44° NW 05:17:01 44° NW
Cosmos 1844 4.2 05:12:53 10° NW 05:18:13 47° WSW 05:19:00 44° SW
Geosat 4.1 05:23:07 65° WSW 05:23:08 65° WSW 05:28:07 10° NNW
SL-16 R/B 4.2 05:25:29 15° ENE 05:25:29 15° ENE 05:27:00 10° ENE
ARIANE 5 R/B 4.1 05:23:09 28° WSW 05:23:25 28° W 05:27:18 10° NW
ERS-1 Rocket 3.6 05:24:12 43° WSW 05:24:40 44° W 05:29:28 10° NNW
Cosmos 2237 Rocket 2.3 05:26:03 62° ENE 05:26:03 62° ENE 05:31:05 10° NNE
Meteor 1-24 Rocket 4.2 05:32:05 44° WSW 05:33:04 50° WNW 05:38:21 10° N
NOSS 0 Rocket 4.2 05:42:41 48° WSW 05:44:14 64° WNW 05:50:26 10° NNE
Terra 3.1 05:51:22 31° W 05:51:22 31° W 05:55:13 10° NW
ATLAS CENTAUR R/B 3.2 05:50:26 10° NW 05:53:06 28° WNW 05:53:06 28° WNW
Cosmos 967 Rocket 4.4 05:52:42 10° NNW 05:59:04 79° WSW 05:59:04 79° WSW
SL-4 R/B 4.4 06:00:19 10° W 06:03:30 21° NNW 06:06:31 10° NNE
Cosmos 2278 Rocket 2.3 05:59:19 10° NNW 06:04:25 70° NNE 06:04:25 70° NNE
Meteor 1-21 Rocket 4.4 06:10:25 68° NNE 06:10:25 68° NNE 06:15:23 10° N
Cosmos 1891 Rocket 4.4 06:05:01 10° N 06:11:02 81° NE 06:11:02 81° NE
Cosmos 1513 Rocket 4.4 06:08:57 10° N 06:14:43 79° NNE 06:14:43 79° NNE
USA 215 3.9 06:09:02 10° NE 06:15:20 53° NW 06:20:10 18° WSW
Cosmos 1867 4.4 06:19:04 10° NW 06:23:03 44° WNW 06:23:03 44° WNW
Cosmos 1072 Rocket 4.5 06:18:28 10° N 06:24:36 78° WNW 06:24:36 78° WNW
Cosmos 1943 Rocket 3.8 06:29:12 10° N 06:33:35 23° ENE 06:33:59 23° ENE
Cosmos 1607 4.0 06:30:11 10° NNW 06:36:00 75° NNW 06:36:00 75° NNW
USA 267 4.5 06:41:13 19° E 06:45:08 36° NE 06:50:59 10° NNW
Cosmos 1464 Rocket 4.5 06:46:24 10° NNW 06:52:11 51° W 06:52:11 51° W
Cosmos 1634 Rocket 4.4 06:55:42 10° N 07:01:35 56° ENE 07:01:35 56° ENE
SL-16 R/B 2.9 07:07:19 48° NW 07:07:19 48° NW 07:12:20 10° N
SJ 16-02 3.2 07:05:32 10° N 07:07:51 29° N 07:07:51 29° N
Cosmos 2237 Rocket 4.5 07:07:49 13° W 07:10:03 16° NW 07:13:24 10° NNW
Cosmos 2369 Rocket 3.4 07:20:11 10° N 07:25:19 33° ENE 07:25:57 32° ENE
Exosat Rocket 4.2 07:27:41 69° ENE 07:27:41 69° ENE 07:32:50 10° NNE
USA 229 DEB 3.7 07:32:11 63° WNW 07:32:18 63° NW 07:38:56 10° NNE
USA 229 3.7 07:32:18 63° WNW 07:32:24 63° NW 07:39:02 10° NNE
NOSS 3-1 (A) 4.0 07:52:19 43° NW 07:52:19 43° NW 07:57:54 10° NNE
Cosmos 1763 Rocket 4.2 07:55:45 46° NNW 07:55:45 46° NNW 07:59:38 10° N
Cosmos 2098 Rocket 4.3 07:56:35 46° ENE 07:56:35 46° ENE 08:00:34 10° NNE
Cosmos 2142 Rocket 4.5 07:49:48 10° N 07:55:25 71° NW 07:55:25 71° NW
SL-16 R/B 4.0 08:00:13 21° ESE 08:03:00 30° ENE 08:08:15 10° N
Cosmos 1825 4.5 08:06:51 23° N 08:06:51 23° N 08:08:21 10° N
Resurs 1-4 Rocket 3.0 08:04:06 10° NNE 08:08:42 41° E 08:08:42 41° E
X-37B 4.1 08:10:13 12° NNE 08:10:13 12° NNE 08:11:00 10° NNE
Cosmos 1943 Rocket 3.4 08:12:17 10° NW 08:15:29 30° WNW 08:15:29 30° WNW
ADEOS II 3.8 08:16:00 10° NE 08:20:04 22° E 08:20:33 22° ESE
Cosmos 1943 3.6 08:20:36 51° NW 08:20:36 51° NW 08:25:49 10° N
NPP 4.4 08:16:52 10° NNE 08:21:57 43° E 08:21:57 43° E
USA 267 3.3 08:28:31 59° WSW 08:28:31 59° WSW 08:34:20 10° NW
CZ-2D R/B 2.3 08:23:38 10° NNE 08:28:31 62° E 08:28:31 62° E
Cosmos 1603 4.4 08:29:22 41° WNW 08:29:23 41° WNW 08:34:44 10° N
Cosmos 540 Rocket 4.2 08:34:14 44° NW 08:34:14 44° NW 08:38:33 10° N
Cosmos 2221 3.6 08:29:38 10° N 08:32:29 41° N 08:32:29 41° N
Meteor 2-8 Rocket 4.3 08:28:14 10° N 08:34:24 81° E 08:35:02 72° SE
USA 307 4.1 08:38:30 38° N 08:38:30 38° N 08:41:45 10° NNE
Cosmos 1633 4.5 08:43:37 28° N 08:43:37 28° N 08:45:23 10° N
DELTA 2 R/B (1) 4.1 08:40:36 39° WNW 08:42:20 55° N 08:47:46 10° ENE
Cosmos 841 Rocket 4.1 08:43:26 44° NW 08:43:26 44° NW 08:47:58 10° N
USA 308 4.2 08:53:51 32° NW 08:53:51 32° NW 08:57:33 10° NNE
Helios 1B rocket 3.0 08:52:21 10° NNE 08:55:36 55° N 08:55:36 55° N
Cosmos 1656 Rocket 3.7 08:51:32 10° NNW 08:56:50 62° W 08:56:50 62° W
Cosmos 1937 Rocket 3.9 08:53:33 10° NNW 08:57:55 49° WNW 08:57:55 49° WNW
Cosmos 1606 4.1 08:56:47 10° NNW 08:59:00 33° NNW 08:59:00 33° NNW
ARGOS Delta rocket 4.4 08:59:14 10° N 09:04:32 51° WNW 09:04:47 50° W
UNK 3.6 09:06:06 84° NNW 09:06:06 84° NNW 09:10:35 10° NNW
BREEZE-M R/B 3.7 09:06:01 32° NW 09:06:32 34° NNW 09:10:34 10° NE
Cosmos 2369 Rocket 3.5 09:04:19 10° NW 09:07:41 26° WNW 09:07:41 26° WNW
ATLAS 5 CENTAUR R/B 4.2 09:05:06 36° SW 09:10:16 45° S 10:02:06 10° ESE
Cosmos 1933 4.0 09:06:20 10° N 09:10:19 48° E 09:10:38 47° E
OAO 1 4.4 09:09:08 55° W 09:10:23 87° N 09:15:53 10° E
ATLAS 5 CENTAUR R/B 2.8 09:15:36 27° NW 09:15:36 27° NW 09:19:04 10° N
Cosmos 2026 Rocket 4.0 09:14:13 53° SW 09:15:28 64° W 09:21:45 10° N
Meteor 1-29 4.0 09:12:19 10° NNE 09:14:47 45° NNE 09:14:47 45° NNE
SeaSat 1 3.6 09:14:36 10° NE 09:19:04 34° ESE 09:20:26 29° SE
Meteor 2-15 Rocket 4.3 09:13:07 10° N 09:19:14 75° W 09:20:52 50° SSW
Lacrosse 4 Rocket 1.8 09:16:09 10° NNW 09:20:10 56° ENE 09:21:02 45° ESE
Cosmos 1151 Rocket 4.4 09:20:56 10° NNE 09:24:49 34° E 09:27:05 20° SE
SL-19 R/B 4.3 09:22:54 10° N 09:28:07 58° WNW 09:29:15 48° WSW
Landsat 4 3.8 09:24:34 10° N 09:28:03 71° NNW 09:28:03 71° NNW
Cosmos 1766 Rocket 3.9 09:27:48 50° SE 09:28:41 63° E 09:33:07 10° NNE
IRIDIUM 104 4.5 09:24:32 10° N 09:29:45 70° E 09:31:54 36° SSE
Cosmos 2150 Rocket 4.5 09:24:47 10° N 09:29:56 59° ENE 09:34:07 16° SSE
Cosmos 1833 Rocket 4.4 09:27:13 15° SE 09:30:28 25° ESE 09:34:59 10° NE
Cosmos 372 Rocket 4.3 09:27:34 10° NNW 09:32:34 46° WSW 09:32:37 46° WSW
Aureole 3 Rocket 4.1 09:30:56 10° NNW 09:35:08 39° W 09:35:12 39° W
Meteor 2-21 4.4 09:32:48 38° S 09:35:20 87° E 09:41:33 10° N
Cosmos 1125 Rocket 4.1 09:31:50 10° N 09:37:00 55° ENE 09:42:10 10° SSE
IRIDIUM 114 4.3 09:33:40 10° N 09:38:54 86° E 09:41:01 37° S
BREEZE-M DEB (TANK) 3.8 09:38:51 40° S 09:39:49 45° SSE 09:43:00 10° ENE
Okean 3 Rocket 3.5 09:39:33 55° S 09:40:29 84° E 09:44:53 10° N
ADEOS Rocket 3.3 09:40:16 23° S 09:45:17 75° WSW 09:52:08 10° NNW
ARIANE 5 R/B 3.6 09:40:40 10° NNE 09:45:18 38° E 09:48:35 18° SSE
SL-16 R/B 3.0 09:45:19 35° WSW 09:46:24 38° W 09:52:05 10° NNW
X-37B 3.4 09:44:27 10° NNW 09:46:53 20° NNE 09:49:20 10° ENE
Cosmos 2151 4.4 09:47:48 24° WNW 09:47:48 24° WNW 09:50:59 10° NNW
IRIDIUM 103 4.2 09:42:49 10° N 09:48:02 77° W 09:50:09 37° S
Resurs 1-4 Rocket 3.6 09:44:40 10° NNW 09:48:36 21° WNW 09:49:46 20° W
Cosmos 2266 Rocket 4.1 09:47:29 24° S 09:51:20 72° E 09:57:23 10° N
Cosmos 2082 Rocket 4.4 09:50:19 10° SE 09:54:03 18° E 09:57:48 10° ENE
CZ-4C R/B 1.8 09:57:15 41° SW 09:58:58 86° WNW 10:04:23 10° NNE
ASTEX 1 3.4 09:55:57 21° SSE 09:59:14 80° E 10:04:11 10° N
ADEOS II 2.8 09:55:00 10° N 09:59:47 37° WNW 10:01:29 29° WSW
OAO 3 Rocket 3.9 10:00:37 32° S 10:01:36 35° SSE 10:05:57 10° E
CZ-2C R/B 2.5 10:07:20 20° SSE 10:07:20 20° SSE 10:09:50 10° ESE
CZ-2D R/B 4.0 10:05:41 10° NNW 10:08:16 14° WNW 10:09:50 12° W
GPS 2-04 Rocket1 2.6 10:06:15 26° W 10:08:23 81° N 10:12:14 10° E
CZ-2D R/B 4.4 10:04:39 10° NNE 10:08:35 41° E 10:11:32 16° SSE
Cosmos 1812 3.1 10:04:58 10° N 10:08:47 61° E 10:11:50 15° SSE
ERBS 4.2 10:08:20 18° WNW 10:09:06 19° NW 10:11:30 10° N
IDEFIX/ARIANE 42P 2.8 10:08:36 10° N 10:13:41 53° WNW 10:16:18 27° SW
Delta 2 Rocket 3.1 10:14:09 31° WSW 10:16:00 84° S 10:19:47 10° E
Cosmos 1271 Rocket 2.5 10:14:12 10° NNW 10:17:56 68° W 10:19:56 26° S
COSMOS 2406 3.5 10:14:08 19° S 10:18:12 66° ESE 10:23:49 10° NNE
Cosmos 1782 3.3 10:14:33 10° NNW 10:18:17 39° W 10:19:24 32° SW
Cosmos 2084 Rocket 3.2 10:18:17 34° SW 10:19:54 75° WNW 10:23:51 10° NNE
CZ-4C R/B 2.9 10:18:37 30° S 10:20:09 62° W 10:23:34 10° NNW
Cosmos 1655 Rocket 4.2 10:17:01 24° SSW 10:20:45 55° W 10:26:52 10° N
SL-08 R/B 3.8 10:19:39 10° SSE 10:24:12 61° ENE 10:28:51 10° N
Chandra Rocket (1) 3.7 10:20:30 20° SW 10:25:38 35° S 10:29:32 10° ESE
DELTA 2 R/B (1) 4.1 10:23:47 10° WNW 10:29:16 59° N 10:34:45 10° E
Tianhe-1 1.4 10:30:08 26° W 10:31:38 61° NNW 10:34:47 10° ENE
Cosmos 1500 Rocket 3.5 10:29:43 15° S 10:33:18 87° E 10:37:37 10° N
CZ-2C R/B 3.0 10:30:04 10° NNE 10:34:53 55° E 10:39:30 10° S
Cosmos 1656 4.0 10:29:55 10° NNW 10:35:37 71° ENE 10:41:15 10° SSE
Cosmos 1743 Rocket 3.5 10:34:03 14° S 10:37:46 85° W 10:42:11 10° N
Cosmos 1328 Rocket 4.2 10:35:41 10° NNW 10:39:41 36° W 10:42:31 17° SSW
Cosmos 773 Rocket 4.3 10:44:00 16° SW 10:48:04 53° WNW 10:53:15 10° N
BREEZE-M DEB (TANK) 4.4 10:42:05 10° WNW 10:48:22 25° WSW 10:51:09 10° S
Cosmos 1697 Rocket 4.0 10:43:11 10° N 10:48:35 44° ENE 10:53:58 10° SE
Cosmos 44 3.6 10:45:39 16° SW 10:49:43 64° WNW 10:55:06 10° NNE
Cosmos 2315 Rocket 4.0 10:44:37 10° N 10:50:48 73° W 10:56:57 10° S
Nadezhda 2 Rocket 4.5 10:47:13 10° S 10:53:19 90° N 10:59:27 10° N
SeaSat 1 3.7 10:52:17 10° N 10:56:24 27° WNW 11:00:12 11° WSW
Sich 1 3.4 10:54:44 10° S 10:59:04 67° E 11:03:26 10° NNE
ALOS 2.9 10:54:38 10° NNE 10:59:14 58° E 11:03:49 10° S
Cosmos 2228 Rocket 3.4 10:55:39 10° N 11:00:08 72° E 11:04:33 10° SSE
FALCON 9 DEB 4.3 10:58:59 10° WNW 11:01:36 21° SW 11:04:13 10° S
BREEZE-M DEB (TANK) 2.9 11:01:55 12° SSW 11:03:49 36° SE 11:06:00 10° ENE
SL-4 R/B 4.4 11:03:34 10° NNW 11:06:19 21° NNE 11:09:00 10° E
USA 281 3.6 11:00:59 10° S 11:07:04 40° WSW 11:13:12 10° NW
Cosmos 1818 3.7 11:04:21 10° SSW 11:09:45 79° ESE 11:15:13 10° NNE
Cosmos 1515 Rocket 4.5 11:07:22 10° NNW 11:11:13 30° W 11:15:05 10° SSW
Cosmos 1833 Rocket 3.4 11:08:56 10° SW 11:14:08 38° WNW 11:19:22 10° N
Cosmos 1538 Rocket 4.2 11:09:28 10° SSW 11:14:47 62° WNW 11:20:04 10° N
Lacrosse 5 rocket 2.1 11:12:06 10° NNW 11:15:41 51° NE 11:19:24 10° SE
Cosmos 1980 Rocket 3.8 11:13:17 10° N 11:18:31 40° ENE 11:23:44 10° SE
Cosmos 1484 Rocket 3.2 11:16:09 10° NNE 11:19:50 61° E 11:23:30 10° S
NOSS 3-4 (A) 3.5 11:17:36 10° SW 11:23:18 61° WNW 11:29:19 10° NNE
NOSS 3-4 (C) 3.5 11:17:43 10° SW 11:23:25 62° WNW 11:29:27 10° NNE
X-37B 0.5 11:20:38 10° WNW 11:23:48 81° SW 11:26:58 10° SE
ARIANE 5 R/B 3.9 11:20:27 10° NNW 11:24:07 21° WNW 11:27:46 10° WSW
FENGYUN 3A 3.7 11:20:45 10° N 11:26:09 69° WNW 11:31:31 10° SSW
Cosmos 2369 4.2 11:20:59 10° NNW 11:26:38 69° ENE 11:32:14 10° SSE
